IRIDIUM 41 [-]

Last updated on July 29, 2018, 12:20 a.m. UTC

1 25040U 97069B   18208.89205685  .07915872 -17382-5  18859-3 0  9994
2 25040  86.5940 209.7457 0066958 229.0500 130.5497 16.36285672 84941

Satellite is not in orbit.